Mackinac Island, MI

11:50 PM EDT on May 20, 2018 (GMT -0400)
Mackinac Island

Weather History for KMCD - October, 2013

Change the Weather History Date:

Wednesday, October 16, 2013

  Actual Average Record
Temperature  
Mean Temperature 52 °F -  
Max Temperature 56 °F 50 °F 69 °F (1998)
Min Temperature 47 °F 40 °F 27 °F (1978)
Degree Days  
Heating Degree Days 14    
Growing Degree Days 2 (Base 50)    
Moisture  
Dew Point 50 °F    
Average Humidity 93    
Maximum Humidity 99    
Minimum Humidity 82    
Precipitation  
Precipitation 0.07 in - - ()
Sea Level Pressure  
Sea Level Pressure 29.69 in    
Wind  
Wind Speed 9 mph (WSW)    
Max Wind Speed 17 mph    
Max Gust Speed 25 mph    
Visibility 9 miles    
Events Rain    
Averages and records for this station are not official NWS values.
T = Trace of Precipitation, MM = Missing Value Source: NWS Daily Summary

Daily Weather History Graph

Daily Weather History Graph

Search for Another Location

Airport or City:

Astronomy

Oct. 16, 2013 Rise Set
Actual Time 7:56 AM EDT 6:50 PM EDT
Civil Twilight 7:26 AM EDT 7:20 PM EDT
Nautical Twilight 6:52 AM EDT 7:55 PM EDT
Astronomical Twilight 6:17 AM EDT 8:29 PM EDT
Moon 5:34 PM EDT (10/16) 5:17 AM EDT (10/16)
Length of Visible Light 11h 53m
Length of Day
10h 53m
Waxing Gibbous, 94% of the Moon is Illuminated
Oct 16
Waxing Gibbous
Oct 18
Full
Oct 26
Last Quarter
Nov 3
New
Nov 10
First Quarter

Hourly Weather History & Observations

Time (EDT) Temp. Dew Point Humidity Pressure Visibility Wind Dir Wind Speed Gust Speed Precip Events Conditions
12:19 AM 55.8 °F 55.0 °F 97% 29.70 in 7.0 mi SSE 6.9 mph - N/A   Overcast
12:38 AM 55.8 °F 55.2 °F 98% 29.69 in 7.0 mi SSE 6.9 mph - N/A   Overcast
12:58 AM 55.8 °F 55.4 °F 99% 29.69 in 5.0 mi South 6.9 mph - N/A   Overcast
1:19 AM 55.6 °F 55.0 °F 98% 29.68 in 5.0 mi South 8.1 mph - N/A   Overcast
1:38 AM 55.6 °F 55.0 °F 98% 29.68 in 5.0 mi South 5.8 mph - N/A   Overcast
1:58 AM 55.4 °F 55.0 °F 99% 29.67 in 7.0 mi South 6.9 mph - N/A   Mostly Cloudy
2:19 AM 55.2 °F 54.9 °F 99% 29.68 in 5.0 mi South 8.1 mph - N/A   Mostly Cloudy
2:38 AM 55.9 °F 55.6 °F 99% 29.67 in 7.0 mi SSW 6.9 mph - N/A   Overcast
2:58 AM 55.8 °F 55.4 °F 99% 29.67 in 5.0 mi SSW 5.8 mph - N/A   Overcast
3:19 AM 55.8 °F 55.4 °F 99% 29.67 in 5.0 mi South 5.8 mph - N/A   Overcast
3:38 AM 55.6 °F 55.4 °F 99% 29.66 in 5.0 mi SSE 5.8 mph - N/A   Overcast
3:59 AM 55.4 °F 55.2 °F 99% 29.65 in 5.0 mi South 4.6 mph - N/A   Overcast
4:18 AM 55.4 °F 55.0 °F 99% 29.65 in 4.0 mi South 3.5 mph - 0.05 in Rain Heavy Rain
4:38 AM 55.6 °F 55.4 °F 99% 29.64 in 5.0 mi South 3.5 mph - 0.05 in   Overcast
4:58 AM 56.3 °F 55.6 °F 97% 29.64 in 7.0 mi South 9.2 mph 16.1 mph 0.05 in   Overcast
5:18 AM 55.6 °F 54.9 °F 97% 29.64 in 7.0 mi SSW 6.9 mph - N/A   Scattered Clouds
5:39 AM 54.9 °F 53.2 °F 94% 29.64 in 10.0 mi SSW 11.5 mph 20.7 mph N/A   Clear
5:58 AM 54.5 °F 52.2 °F 92% 29.64 in 10.0 mi SSW 12.7 mph 18.4 mph N/A   Scattered Clouds
6:19 AM 54.3 °F 52.0 °F 92% 29.64 in 10.0 mi SSW 11.5 mph 19.6 mph N/A   Overcast
6:39 AM 53.6 °F 50.9 °F 91% 29.64 in 10.0 mi SSW 13.8 mph 23.0 mph 0.01 in   Overcast
6:58 AM 52.7 °F 51.1 °F 94% 29.64 in 7.0 mi SSW 15.0 mph 21.9 mph 0.01 in   Drizzle
7:19 AM 52.2 °F 50.9 °F 95% 29.64 in 5.0 mi SSW 12.7 mph 17.3 mph N/A Rain Light Rain
7:39 AM 51.8 °F 50.5 °F 95% 29.64 in 10.0 mi SSW 11.5 mph 18.4 mph N/A   Overcast
7:58 AM 52.0 °F 50.4 °F 94% 29.63 in 10.0 mi SW 9.2 mph 16.1 mph N/A Rain Light Rain
8:19 AM 52.0 °F 49.5 °F 91% 29.64 in 10.0 mi SW 9.2 mph 18.4 mph N/A   Overcast
8:39 AM 51.4 °F 49.6 °F 94% 29.64 in 10.0 mi SSW 10.4 mph 18.4 mph N/A Rain Light Rain
8:58 AM 51.3 °F 49.6 °F 94% 29.64 in 10.0 mi SSW 11.5 mph 19.6 mph 0.01 in Rain Light Rain
9:19 AM 51.4 °F 49.6 °F 94% 29.64 in 10.0 mi SSW 9.2 mph 18.4 mph N/A   Overcast
9:39 AM 51.8 °F 50.0 °F 94% 29.64 in 10.0 mi SSW 10.4 mph - N/A Rain Light Rain
9:58 AM 51.8 °F 50.4 °F 95% 29.64 in 10.0 mi SSW 9.2 mph 19.6 mph N/A Rain Light Rain
10:19 AM 52.2 °F 50.5 °F 94% 29.64 in 10.0 mi SW 8.1 mph - N/A   Overcast
10:38 AM 53.6 °F 51.1 °F 91% 29.64 in 10.0 mi SW 13.8 mph 17.3 mph N/A   Overcast
10:59 AM 54.0 °F 51.4 °F 91% 29.64 in 10.0 mi SW 12.7 mph 25.3 mph N/A   Overcast
11:19 AM 54.3 °F 51.8 °F 91% 29.63 in 10.0 mi WSW 17.3 mph 24.2 mph N/A   Overcast
11:38 AM 53.6 °F 51.8 °F 94% 29.63 in 7.0 mi SW 15.0 mph 21.9 mph N/A   Overcast
11:59 AM 53.2 °F 52.0 °F 95% 29.63 in 4.0 mi SW 15.0 mph 24.2 mph N/A Rain Light Rain
12:19 PM 53.2 °F 52.3 °F 97% 29.63 in 7.0 mi West 13.8 mph 23.0 mph N/A Rain Light Rain
12:38 PM 53.8 °F 52.9 °F 97% 29.63 in 10.0 mi WNW 11.5 mph 16.1 mph N/A   Overcast
12:59 PM 53.8 °F 52.2 °F 94% 29.64 in 10.0 mi WNW 10.4 mph 16.1 mph N/A   Overcast
1:19 PM 53.8 °F 51.3 °F 91% 29.64 in 10.0 mi WNW 11.5 mph 18.4 mph N/A   Overcast
1:38 PM 52.7 °F 49.3 °F 88% 29.65 in 10.0 mi NW 10.4 mph 21.9 mph N/A   Overcast
1:59 PM 51.3 °F 49.5 °F 94% 29.66 in 5.0 mi WNW 12.7 mph 18.4 mph N/A   Overcast
2:19 PM 51.1 °F 49.1 °F 93% 29.66 in 10.0 mi WNW 11.5 mph 18.4 mph N/A   Overcast
2:38 PM 51.1 °F 48.9 °F 92% 29.67 in 10.0 mi WNW 12.7 mph 19.6 mph N/A   Overcast
2:59 PM 50.4 °F 48.6 °F 94% 29.68 in 10.0 mi NW 9.2 mph 16.1 mph N/A   Overcast
3:19 PM 50.7 °F 48.6 °F 92% 29.68 in 10.0 mi WNW 9.2 mph 16.1 mph N/A   Overcast
3:39 PM 50.9 °F 48.6 °F 92% 29.68 in 10.0 mi WNW 10.4 mph 18.4 mph N/A   Overcast
3:59 PM 51.1 °F 48.4 °F 90% 29.68 in 10.0 mi WNW 11.5 mph 17.3 mph N/A   Overcast
4:19 PM 50.9 °F 48.2 °F 90% 29.69 in 10.0 mi WNW 13.8 mph 20.7 mph N/A   Overcast
4:39 PM 50.5 °F 48.0 °F 91% 29.70 in 10.0 mi NW 10.4 mph 21.9 mph N/A   Overcast
4:59 PM 50.4 °F 47.7 °F 90% 29.70 in 10.0 mi WNW 12.7 mph 18.4 mph N/A   Overcast
5:19 PM 50.4 °F 47.5 °F 90% 29.71 in 10.0 mi WNW 13.8 mph 21.9 mph N/A   Overcast
5:39 PM 50.0 °F 47.3 °F 90% 29.72 in 10.0 mi WNW 13.8 mph 18.4 mph N/A   Overcast
5:59 PM 50.0 °F 47.1 °F 90% 29.72 in 10.0 mi WNW 8.1 mph 21.9 mph N/A   Overcast
6:19 PM 49.5 °F 46.8 °F 90% 29.73 in 10.0 mi WNW 13.8 mph 21.9 mph N/A   Overcast
6:39 PM 49.6 °F 46.4 °F 89% 29.74 in 10.0 mi WNW 12.7 mph 20.7 mph N/A   Overcast
6:59 PM 49.5 °F 46.4 °F 89% 29.75 in 10.0 mi West 11.5 mph 18.4 mph N/A   Overcast
7:19 PM 49.1 °F 46.0 °F 89% 29.76 in 10.0 mi WNW 12.7 mph 18.4 mph N/A   Overcast
7:39 PM 48.7 °F 46.0 °F 90% 29.77 in 10.0 mi WNW 10.4 mph 19.6 mph N/A   Overcast
7:59 PM 48.7 °F 46.2 °F 91% 29.78 in 10.0 mi West 15.0 mph 20.7 mph N/A   Overcast
8:19 PM 48.2 °F 46.4 °F 93% 29.78 in 10.0 mi WNW 15.0 mph 19.6 mph N/A   Overcast
8:39 PM 48.0 °F 45.9 °F 92% 29.79 in 7.0 mi WNW 12.7 mph 20.7 mph N/A   Overcast
8:59 PM 47.5 °F 45.9 °F 94% 29.79 in 7.0 mi WNW 10.4 mph 18.4 mph N/A   Overcast
9:19 PM 47.7 °F 45.7 °F 93% 29.80 in 10.0 mi West 12.7 mph - N/A   Overcast
9:39 PM 48.2 °F 45.5 °F 90% 29.80 in 10.0 mi WNW 10.4 mph 17.3 mph N/A   Overcast
9:59 PM 48.2 °F 45.1 °F 89% 29.80 in 10.0 mi WNW 11.5 mph - N/A   Overcast
10:19 PM 48.2 °F 44.8 °F 88% 29.81 in 10.0 mi WNW 11.5 mph 19.6 mph N/A   Overcast
10:39 PM 48.2 °F 44.6 °F 87% 29.81 in 10.0 mi West 13.8 mph 19.6 mph N/A   Overcast
10:59 PM 48.2 °F 43.9 °F 85% 29.82 in 10.0 mi West 12.7 mph 18.4 mph N/A   Overcast
11:19 PM 48.2 °F 43.2 °F 83% 29.82 in 10.0 mi WNW 11.5 mph 18.4 mph N/A   Overcast
11:39 PM 48.2 °F 43.0 °F 82% 29.82 in 10.0 mi WNW 15.0 mph 19.6 mph N/A   Overcast
11:59 PM 48.2 °F 43.0 °F 82% 29.82 in 10.0 mi WNW 10.4 mph 18.4 mph N/A   Overcast